�������l�o���
Date,Time,MP-1(��Sv/h),MP-2(��Sv/h),MP-3(��Sv/h),MP-4(��Sv/h),MP-5(��Sv/h),MP-6(��Sv/h),MP-7(��Sv/h),MP-8(��Sv/h),����,����(m/s),���J
2017/08/11,00:00,0.950,1.493,0.988,1.784,1.216,0.515,0.943,0.874,�k�k��,5.4,�L
2017/08/11,00:10,0.947,1.495,0.987,1.784,1.217,0.514,0.946,0.873,�k��,6.0,�L
2017/08/11,00:20,0.947,1.492,0.987,1.784,1.214,0.513,0.944,0.873,�k��,5.5,�L
2017/08/11,00:30,0.945,1.491,0.986,1.782,1.218,0.513,0.943,0.872,�k�k��,5.6,�L
2017/08/11,00:40,0.950,1.493,0.985,1.783,1.215,0.514,0.943,0.873,�k�k��,5.1,�L
2017/08/11,00:50,0.949,1.492,0.984,1.785,1.214,0.513,0.942,0.873,�k�k��,4.9,�L
2017/08/11,01:00,0.949,1.488,0.985,1.782,1.214,0.511,0.942,0.872,�k�k��,5.0,�L
2017/08/11,01:10,0.945,1.491,0.984,1.784,1.210,0.513,0.944,0.873,�k�k��,4.7,�L
2017/08/11,01:20,0.945,1.485,0.985,1.782,1.212,0.512,0.945,0.873,�k�k��,4.0,�L
2017/08/11,01:30,0.946,1.484,0.984,1.781,1.208,0.513,0.940,0.873,�k�k��,4.2,�L
2017/08/11,01:40,0.946,1.482,0.981,1.781,1.206,0.512,0.942,0.872,�k��,3.5,�L
2017/08/11,01:50,0.948,1.482,0.981,1.780,1.208,0.510,0.940,0.872,�k�k��,3.7,�L
2017/08/11,02:00,0.945,1.477,0.978,1.774,1.202,0.511,0.940,0.873,�k,3.2,�L
2017/08/11,02:10,0.943,1.478,0.977,1.773,1.197,0.510,0.938,0.870,�k�k��,3.1,�L
2017/08/11,02:20,0.946,1.475,0.977,1.773,1.195,0.509,0.938,0.870,�k��,5.0,�L
2017/08/11,02:30,0.944,1.473,0.978,1.772,1.196,0.508,0.938,0.872,�k��,4.2,�L
2017/08/11,02:40,0.944,1.476,0.977,1.774,1.195,0.508,0.938,0.872,�k��,4.7,�L
2017/08/11,02:50,0.944,1.475,0.977,1.771,1.197,0.509,0.938,0.870,�k��,4.3,�L
2017/08/11,03:00,0.945,1.475,0.978,1.772,1.198,0.509,0.939,0.872,�k�k��,4.8,�L
2017/08/11,03:10,0.943,1.480,0.978,1.771,1.199,0.507,0.939,0.870,�k�k��,3.9,�L
2017/08/11,03:20,0.946,1.476,0.981,1.774,1.199,0.509,0.938,0.872,�k�k��,4.7,�L
2017/08/11,03:30,0.945,1.477,0.979,1.772,1.198,0.510,0.940,0.872,�k��,4.7,�L
2017/08/11,03:40,0.944,1.480,0.980,1.771,1.200,0.510,0.938,0.871,�k��,4.7,�L
2017/08/11,03:50,0.943,1.479,0.979,1.771,1.201,0.509,0.939,0.871,�k��,5.3,�L
2017/08/11,04:00,0.945,1.481,0.978,1.772,1.201,0.511,0.938,0.872,�k��,5.3,��
2017/08/11,04:10,0.944,1.479,0.979,1.774,1.199,0.511,0.940,0.871,�k��,4.8,�L
2017/08/11,04:20,0.944,1.479,0.980,1.770,1.202,0.509,0.942,0.871,�k�k��,4.8,��
2017/08/11,04:30,0.946,1.478,0.982,1.773,1.201,0.510,0.940,0.870,�k�k��,4.7,�L
2017/08/11,04:40,0.943,1.476,0.980,1.774,1.201,0.509,0.941,0.872,�k��,4.8,�L
2017/08/11,04:50,0.943,1.477,0.981,1.771,1.200,0.511,0.942,0.873,�k�k��,5.1,��
2017/08/11,05:00,0.946,1.477,0.980,1.773,1.198,0.510,0.942,0.871,�k��,4.8,�L
2017/08/11,05:10,0.943,1.479,0.980,1.773,1.204,0.510,0.939,0.871,�k��,4.5,�L
2017/08/11,05:20,0.944,1.477,0.982,1.772,1.202,0.511,0.940,0.868,�k��,4.2,�L
2017/08/11,05:30,0.945,1.481,0.979,1.774,1.202,0.509,0.941,0.871,�k��,4.4,�L
2017/08/11,05:40,0.945,1.480,0.982,1.771,1.201,0.510,0.942,0.871,�k��,4.6,�L
2017/08/11,05:50,0.945,1.478,0.979,1.770,1.204,0.508,0.941,0.872,�k��,4.5,��
2017/08/11,06:00,0.946,1.481,0.980,1.773,1.202,0.509,0.940,0.872,�k�k��,5.4,�L
2017/08/11,06:10,0.944,1.482,0.981,1.775,1.201,0.509,0.941,0.870,�k��,5.2,�L
2017/08/11,06:20,0.945,1.478,0.981,1.774,1.202,0.508,0.942,0.872,�k�k��,5.2,�L
2017/08/11,06:30,0.945,1.477,0.979,1.773,1.203,0.511,0.942,0.872,�k��,4.9,�L
2017/08/11,06:40,0.944,1.480,0.978,1.773,1.202,0.510,0.942,0.873,�k��,5.2,�L
2017/08/11,06:50,0.945,1.479,0.982,1.771,1.204,0.509,0.941,0.875,�k��,5.0,�L
2017/08/11,07:00,0.947,1.480,0.980,1.774,1.203,0.512,0.942,0.873,�k��,4.1,�L
2017/08/11,07:10,0.945,1.479,0.979,1.774,1.203,0.510,0.944,0.871,�k��,4.4,�L
2017/08/11,07:20,0.944,1.478,0.980,1.773,1.202,0.508,0.943,0.874,�k�k��,4.5,�L
2017/08/11,07:30,0.945,1.477,0.979,1.772,1.204,0.510,0.942,0.873,�k��,4.8,�L
2017/08/11,07:40,0.945,1.477,0.978,1.774,1.201,0.512,0.943,0.873,�k�k��,5.3,�L
2017/08/11,07:50,0.942,1.478,0.979,1.772,1.204,0.510,0.943,0.872,�k��,5.1,�L
2017/08/11,08:00,0.942,1.477,0.980,1.774,1.204,0.511,0.943,0.874,�k��,5.5,��
2017/08/11,08:10,0.945,1.479,0.983,1.773,1.202,0.509,0.942,0.874,�k��,5.1,�L
2017/08/11,08:20,0.943,1.478,0.981,1.773,1.204,0.511,0.943,0.872,�k��,5.2,��
2017/08/11,08:30,0.946,1.482,0.981,1.776,1.203,0.511,0.942,0.873,�k��,4.7,��
2017/08/11,08:40,0.945,1.480,0.981,1.771,1.206,0.511,0.943,0.874,�k�k��,4.3,�L
2017/08/11,08:50,0.942,1.480,0.979,1.772,1.204,0.512,0.944,0.871,�k�k��,4.8,�L
2017/08/11,09:00,0.945,1.477,0.979,1.772,1.205,0.511,0.942,0.870,�k�k��,4.3,�L
2017/08/11,09:10,0.946,1.478,0.981,1.773,1.203,0.511,0.943,0.871,�k�k��,3.7,�L
2017/08/11,09:20,0.945,1.480,0.980,1.775,1.204,0.510,0.955,0.871,�k�k��,3.5,�L
2017/08/11,09:30,0.943,1.481,0.980,1.774,1.205,0.509,0.942,0.872,�k�k��,3.6,�L
2017/08/11,09:40,0.944,1.478,0.980,1.777,1.203,0.510,0.942,0.871,�k�k��,3.8,�L
2017/08/11,09:50,0.945,1.480,0.980,1.775,1.204,0.510,0.943,0.872,�k,2.3,�L
2017/08/11,10:00,0.943,1.480,0.982,1.774,1.207,0.511,0.942,0.871,�k,3.1,�L
2017/08/11,10:10,0.947,1.478,0.978,1.777,1.207,0.509,0.943,0.872,�k�k��,3.5,�L
2017/08/11,10:20,0.945,1.481,0.982,1.776,1.206,0.510,0.944,0.870,�k�k��,3.9,�L
2017/08/11,10:30,0.943,1.480,0.983,1.777,1.206,0.509,0.944,0.873,�k�k��,3.6,�L
2017/08/11,10:40,0.945,1.479,0.982,1.776,1.206,0.511,0.945,0.871,�k�k��,3.8,�L
2017/08/11,10:50,0.944,1.481,0.979,1.775,1.205,0.510,0.942,0.871,�k�k��,4.0,�L
2017/08/11,11:00,0.946,1.479,0.980,1.777,1.206,0.511,0.944,0.871,�k�k��,4.1,�L
2017/08/11,11:10,0.944,1.475,0.979,1.776,1.205,0.511,0.942,0.870,�k�k��,4.5,�L
2017/08/11,11:20,0.945,1.475,0.981,1.773,1.205,0.511,0.942,0.871,�k�k��,4.5,�L
2017/08/11,11:30,0.945,1.474,0.980,1.774,1.202,0.509,0.941,0.870,�k�k��,5.2,�L
2017/08/11,11:40,0.945,1.473,0.982,1.774,1.201,0.511,0.940,0.869,�k�k��,5.0,�L
2017/08/11,11:50,0.942,1.470,0.978,1.773,1.200,0.512,0.942,0.869,�k�k��,4.9,�L
2017/08/11,12:00,0.944,1.471,0.979,1.774,1.199,0.511,0.939,0.870,�k�k��,4.5,�L
2017/08/11,12:10,0.944,1.472,0.977,1.772,1.198,0.512,0.940,0.870,�k�k��,4.9,�L
2017/08/11,12:20,0.943,1.468,0.976,1.771,1.198,0.512,0.939,0.869,�k�k��,5.0,�L
2017/08/11,12:30,0.940,1.468,0.976,1.768,1.199,0.512,0.939,0.871,�k�k��,5.1,�L
2017/08/11,12:40,0.942,1.471,0.978,1.769,1.200,0.509,0.941,0.869,�k�k��,5.1,�L
2017/08/11,12:50,0.941,1.472,0.977,1.770,1.199,0.510,0.941,0.868,�k�k��,5.2,�L
2017/08/11,13:00,0.941,1.470,0.976,1.772,1.201,0.510,0.939,0.869,�k�k��,5.4,�L
2017/08/11,13:10,0.942,1.470,0.977,1.773,1.200,0.510,0.940,0.870,�k�k��,5.5,�L
2017/08/11,13:20,0.943,1.472,0.976,1.771,1.199,0.509,0.940,0.868,�k�k��,5.3,�L
2017/08/11,13:30,0.939,1.472,0.978,1.770,1.204,0.510,0.940,0.869,�k�k��,5.2,�L
2017/08/11,13:40,0.943,1.471,0.979,1.771,1.201,0.511,0.941,0.869,�k�k��,4.4,�L
2017/08/11,13:50,0.943,1.472,0.975,1.770,1.201,0.509,0.941,0.870,�k�k��,4.6,�L
2017/08/11,14:00,0.942,1.470,0.976,1.769,1.199,0.509,0.942,0.870,�k�k��,4.7,�L
2017/08/11,14:10,0.938,1.474,0.976,1.773,1.200,0.509,0.939,0.869,�k�k��,4.6,�L
2017/08/11,14:20,0.941,1.471,0.977,1.774,1.201,0.509,0.940,0.870,�k�k��,4.1,��
2017/08/11,14:30,0.942,1.471,0.977,1.770,1.200,0.511,0.942,0.868,�k�k��,4.0,�L
2017/08/11,14:40,0.942,1.475,0.976,1.774,1.203,0.508,0.940,0.869,�k�k��,3.8,�L
2017/08/11,14:50,0.941,1.473,0.977,1.770,1.203,0.508,0.942,0.870,�k�k��,3.7,��
2017/08/11,15:00,0.942,1.474,0.977,1.771,1.203,0.509,0.942,0.867,�k�k��,4.4,�L
2017/08/11,15:10,0.943,1.473,0.979,1.771,1.200,0.508,0.943,0.869,�k�k��,4.0,�L
2017/08/11,15:20,0.943,1.476,0.975,1.771,1.202,0.509,0.941,0.870,�k,4.5,��
2017/08/11,15:30,0.942,1.476,0.979,1.774,1.203,0.509,0.941,0.870,�k,4.5,��
2017/08/11,15:40,0.941,1.474,0.974,1.776,1.205,0.509,0.941,0.869,�k�k��,4.3,��
2017/08/11,15:50,0.942,1.476,0.977,1.774,1.205,0.510,0.940,0.871,�k�k��,3.4,��
2017/08/11,16:00,0.942,1.474,0.979,1.774,1.203,0.509,0.940,0.871,�k,3.5,�L
2017/08/11,16:10,0.943,1.475,0.975,1.772,1.206,0.510,0.942,0.871,�k,3.3,�L
2017/08/11,16:20,0.944,1.479,0.978,1.774,1.204,0.510,0.942,0.870,�k,4.3,�L
2017/08/11,16:30,0.943,1.478,0.978,1.774,1.205,0.509,0.941,0.870,�k,2.8,�L
2017/08/11,16:40,0.943,1.479,0.980,1.776,1.203,0.509,0.942,0.871,�k�k��,2.3,�L
2017/08/11,16:50,0.942,1.477,0.977,1.775,1.205,0.509,0.941,0.871,�k,2.3,�L
2017/08/11,17:00,0.944,1.478,0.978,1.776,1.203,0.510,0.942,0.872,�k�k��,3.1,��
2017/08/11,17:10,0.946,1.480,0.976,1.775,1.204,0.510,0.943,0.870,�k,2.8,�L
2017/08/11,17:20,0.943,1.479,0.980,1.774,1.203,0.511,0.942,0.869,�k,2.9,��
2017/08/11,17:30,0.944,1.478,0.980,1.776,1.206,0.510,0.944,0.869,�k,3.5,��
2017/08/11,17:40,0.947,1.480,0.979,1.775,1.205,0.509,0.942,0.870,�k�k��,3.4,��
2017/08/11,17:50,0.943,1.478,0.980,1.778,1.208,0.510,0.943,0.871,�k,3.0,��
2017/08/11,18:00,0.945,1.482,0.982,1.775,1.207,0.513,0.942,0.870,�k,3.7,��
2017/08/11,18:10,0.945,1.481,0.981,1.776,1.206,0.511,0.943,0.871,�k,3.6,��
2017/08/11,18:20,0.945,1.479,0.980,1.778,1.205,0.511,0.942,0.872,�k,3.3,�L
2017/08/11,18:30,0.942,1.481,0.983,1.774,1.206,0.511,0.942,0.872,�k�k��,3.6,��
2017/08/11,18:40,0.944,1.481,0.980,1.779,1.206,0.510,0.943,0.872,�k,4.2,��
2017/08/11,18:50,0.946,1.481,0.982,1.777,1.206,0.512,0.943,0.873,�k�k��,4.4,��
2017/08/11,19:00,0.943,1.481,0.980,1.777,1.208,0.510,0.941,0.873,�k,4.4,��
2017/08/11,19:10,0.945,1.479,0.979,1.775,1.210,0.510,0.943,0.872,�k�k��,3.7,��
2017/08/11,19:20,0.946,1.480,0.980,1.773,1.208,0.510,0.941,0.872,�k�k��,4.1,��
2017/08/11,19:30,0.944,1.480,0.982,1.777,1.209,0.512,0.941,0.872,�k�k��,4.0,��
2017/08/11,19:40,0.947,1.483,0.982,1.779,1.208,0.512,0.943,0.873,�k��,4.0,��
2017/08/11,19:50,0.946,1.479,0.981,1.776,1.208,0.511,0.942,0.870,�k��,4.1,��
2017/08/11,20:00,0.947,1.482,0.980,1.779,1.208,0.511,0.943,0.872,�k��,4.8,��
2017/08/11,20:10,0.946,1.482,0.980,1.776,1.211,0.510,0.942,0.873,�k�k��,4.4,��
2017/08/11,20:20,0.948,1.480,0.981,1.777,1.209,0.511,0.944,0.873,�k�k��,4.1,��
2017/08/11,20:30,0.946,1.479,0.982,1.778,1.209,0.511,0.942,0.871,�k��,4.4,��
2017/08/11,20:40,0.945,1.482,0.982,1.778,1.208,0.510,0.942,0.871,�k��,4.0,��
2017/08/11,20:50,0.947,1.482,0.981,1.778,1.208,0.511,0.942,0.873,�k�k��,3.9,��
2017/08/11,21:00,0.947,1.482,0.980,1.778,1.209,0.512,0.941,0.872,�k�k��,4.2,��
2017/08/11,21:10,0.947,1.480,0.980,1.776,1.210,0.511,0.943,0.874,�k�k��,4.5,��
2017/08/11,21:20,0.945,1.480,0.981,1.780,1.210,0.511,0.944,0.872,�k��,4.1,��
2017/08/11,21:30,0.945,1.481,0.983,1.780,1.209,0.511,0.944,0.872,�k��,5.2,��
2017/08/11,21:40,0.947,1.483,0.983,1.775,1.211,0.511,0.941,0.871,�k�k��,5.1,��
2017/08/11,21:50,0.947,1.482,0.982,1.779,1.208,0.511,0.941,0.872,�k�k��,4.8,��
2017/08/11,22:00,0.946,1.482,0.981,1.777,1.211,0.511,0.941,0.871,�k��,4.9,��
2017/08/11,22:10,0.945,1.480,0.982,1.781,1.211,0.511,0.943,0.873,�k�k��,5.1,��
2017/08/11,22:20,0.945,1.482,0.980,1.778,1.208,0.513,0.944,0.871,�k�k��,5.1,��
2017/08/11,22:30,0.946,1.482,0.982,1.776,1.209,0.510,0.943,0.873,�k�k��,5.3,��
2017/08/11,22:40,0.948,1.481,0.982,1.779,1.208,0.510,0.942,0.872,�k�k��,5.1,��
2017/08/11,22:50,0.947,1.479,0.981,1.779,1.207,0.512,0.945,0.873,�k�k��,4.8,�L
2017/08/11,23:00,0.947,1.482,0.984,1.779,1.209,0.512,0.942,0.873,�k�k��,5.0,�L
2017/08/11,23:10,0.946,1.481,0.980,1.777,1.209,0.511,0.941,0.873,�k�k��,4.2,�L
2017/08/11,23:20,0.945,1.483,0.983,1.779,1.210,0.509,0.943,0.872,�k�k��,3.7,��
2017/08/11,23:30,0.947,1.482,0.980,1.778,1.209,0.511,0.941,0.872,�k�k��,4.0,��
2017/08/11,23:40,0.946,1.483,0.983,1.779,1.210,0.512,0.942,0.872,�k�k��,3.8,��
2017/08/11,23:50,0.946,1.483,0.983,1.778,1.210,0.511,0.941,0.873,�k�k��,2.3,��
